Location: Hackberry
(29.5783°N, 96.8797°W)
Time: 02:06:24
(UTC+00:00)

Explorer 11/Cluster Stage 4 - Pass Details

Date: 12 November 2024
Orbit: 464 x 1202 km, 28.8° (Epoch: 03 December)

Event Time Altitude Azimuth Distance (km) Brightness Sun altitude
Exits shadow 10:05:14 15° 105° (ESE) 1,581 8.8 -35.8°
Drops below altitude 10° 10:06:04 10° 99° (E) 1,849 9.3 -35.7°
Sets 10:08:19 0° 88° (E) 2,659 10.3 -35.2°
